This is the latest recevied weather packets stored in our database for station/object DL5DI-H. If no packets are shown the sender has not sent any weather packets the latest 10 day(s).
| Time | Temp. | Humidity | Pressure | Rain* | Wind** | Luminosity | Snow |
|---|---|---|---|---|---|---|---|
| 1788563400 | 18.89° C | 90% | 1018.2 hPa | 0 mm | - | - | - |
| 1788562800 | 18.33° C | 90% | 1018.1 hPa | 0 mm | - | - | - |
| 1788562202 | 18.33° C | 90% | 1017.8 hPa | 0 mm | - | - | - |
| 1788561600 | 18.33° C | 90% | 1017.9 hPa | 0 mm | - | - | - |
| 1788561000 | 18.89° C | 89% | 1017.8 hPa | 0 mm | - | - | - |
| 1788560402 | 18.89° C | 90% | 1017.5 hPa | 0 mm | - | - | - |
| 1788559800 | 18.89° C | 89% | 1017.7 hPa | 0.51 mm | - | - | - |
| 1788559200 | 18.89° C | 90% | 1018 hPa | 0.51 mm | - | - | - |
| 1788558602 | 18.89° C | 89% | 1018 hPa | 0.51 mm | - | - | - |
| 1788558000 | 18.89° C | 89% | 1017.7 hPa | 0.51 mm | - | - | - |
| 1788557402 | 18.89° C | 89% | 1017.6 hPa | 0.51 mm | - | - | - |
| 1788556802 | 18.89° C | 89% | 1017.5 hPa | 0.25 mm | - | - | - |
| 1788556200 | 18.89° C | 89% | 1017.5 hPa | 0.25 mm | - | - | - |
| 1788555602 | 18.89° C | 88% | 1017.4 hPa | 0 mm | - | - | - |
| 1788555000 | 18.89° C | 88% | 1017.5 hPa | 0 mm | - | - | - |
| 1788554402 | 18.89° C | 88% | 1017.5 hPa | 0.25 mm | - | - | - |
| 1788553802 | 18.89° C | 88% | 1017.2 hPa | 0 mm | - | - | - |
| 1788553202 | 18.89° C | 88% | 1017.3 hPa | 0.51 mm | - | - | - |
| 1788552601 | 18.89° C | 88% | 1017.4 hPa | 1.02 mm | - | - | - |
| 1788552002 | 18.89° C | 88% | 1017.4 hPa | 1.02 mm | - | - | - |
| 1788551401 | 18.89° C | 89% | 1016.8 hPa | 2.03 mm | - | - | - |
| 1788550801 | 18.33° C | 88% | 1016.6 hPa | 2.03 mm | - | - | - |
| 1788550202 | 18.33° C | 88% | 1016.6 hPa | 2.29 mm | - | - | - |
| 1788549602 | 18.33° C | 88% | 1016.2 hPa | 1.52 mm | - | - | - |
| 1788549000 | 19.44° C | 84% | 1015.7 hPa | 0 mm | - | - | - |
* Rain latest hour (hover to see other rain measurements)
** Current wind speed in m/s (hover to see current wind gust speed)